Location: Mapua
(41.2500°S, 173.1000°E)
Time: 18:16:33
(UTC+13:00)

ISS - Visible Passes

Search period start: 18 December 2017 00:00
Search period end: 28 December 2017 00:00
Orbit: 402 x 406 km, 51.6° (Epoch: 18 December)

Date Brightness Start Highest point End Pass type
(mag) Time Alt. Az. Time Alt. Az. Time Alt. Az.
18 Dec -1.0 00:12:07 12° ESE 00:12:07 12° ESE 00:12:22 10° ESE visible
18 Dec -1.3 01:44:42 18° SW 01:45:50 21° SSW 01:48:30 10° SSE visible
18 Dec -0.6 03:21:25 10° SSW 03:23:15 14° S 03:25:06 10° SE visible
18 Dec -1.2 04:57:50 10° SW 05:00:38 24° SSE 05:03:25 10° ESE visible
19 Dec -1.9 00:53:05 29° SW 00:53:24 30° SSW 00:56:24 10° SE visible
19 Dec -0.6 02:28:46 10° SW 02:30:41 14° S 02:32:35 10° SSE visible
19 Dec -0.8 04:05:44 10° SSW 04:08:09 18° SSE 04:10:35 10° ESE visible
19 Dec -2.8 23:59:56 32° W 00:01:01 46° SSW 00:04:15 10° SE visible
20 Dec -0.7 01:35:57 10° SW 01:38:07 16° S 01:40:18 10° SSE visible
20 Dec -0.5 03:13:32 10° SSW 03:15:37 15° S 03:17:42 10° SE visible
20 Dec -2.2 04:49:35 10° SW 04:52:47 40° SSE 04:55:57 10° E visible
20 Dec -1.8 21:31:42 10° NE 21:32:41 11° NE 21:33:41 10° ENE visible
20 Dec -3.8 23:05:23 10° NW 23:08:42 84° SSW 23:12:03 10° SE visible
21 Dec -1.0 00:43:04 10° WSW 00:45:35 20° SSW 00:48:07 10° SSE visible
21 Dec -0.4 02:21:10 10° SSW 02:23:02 14° S 02:24:54 10° SE visible
21 Dec -1.4 03:57:27 10° SW 04:00:22 27° SSE 04:03:16 10° E visible
21 Dec -3.7 22:13:14 10° NW 22:16:27 50° NE 22:19:42 10° ESE visible
21 Dec -1.5 23:50:13 10° W 23:53:05 26° SSW 23:55:58 10° SE visible
22 Dec -0.4 01:28:34 10° SW 01:30:25 14° S 01:32:17 10° SSE visible
22 Dec -0.9 03:05:18 10° SSW 03:07:53 20° SSE 03:10:25 10° ESE visible
22 Dec -3.8 04:41:24 10° SW 04:44:45 87° SE 04:48:03 10° NE visible
22 Dec -2.3 22:57:29 10° W 23:00:38 39° SSW 23:03:49 10° SE visible
23 Dec -0.5 00:35:45 10° SW 00:37:49 15° S 00:39:53 10° SSE visible
23 Dec -0.6 02:13:06 10° SSW 02:15:18 16° SSE 02:17:30 10° SE visible
23 Dec -2.8 03:49:09 10° SW 03:52:25 48° SSE 03:55:38 10° ENE visible
23 Dec -3.4 22:04:57 10° WNW 22:08:15 68° SW 22:11:36 10° SE visible
23 Dec -0.7 23:42:49 10° WSW 23:45:13 18° SSW 23:47:38 10° SSE visible
24 Dec -0.4 01:20:46 10° SSW 01:22:42 14° S 01:24:37 10° SE visible
24 Dec -1.8 02:56:57 10° SW 02:59:58 30° SSE 03:02:58 10° E visible
24 Dec -3.3 04:33:22 10° WSW 04:36:30 38° NW 04:39:36 10° NNE visible
24 Dec -1.2 22:49:54 10° WSW 22:52:41 23° SSW 22:55:27 10° SE visible
25 Dec -0.4 00:28:13 10° SW 00:30:03 14° S 00:31:53 10° SSE visible
25 Dec -1.2 02:04:46 10° SW 02:07:28 22° SSE 02:10:08 10° ESE visible
25 Dec -4.0 03:40:54 10° WSW 03:44:14 75° NW 03:47:32 10° NE visible
25 Dec -1.8 21:57:06 10° W 22:00:10 33° SSW 22:03:15 10° SE visible
25 Dec -0.5 23:35:25 10° SW 23:37:24 15° S 23:39:23 10° SSE visible
26 Dec -0.8 01:12:34 10° SSW 01:14:53 17° SSE 01:17:12 10° ESE visible
26 Dec -2.7 02:48:35 10° SW 02:51:01 41° SSW 02:51:01 41° SSW visible
26 Dec -0.7 22:42:29 10° SW 22:44:45 17° SSW 22:47:02 10° SSE visible
27 Dec -0.6 00:20:14 10° SSW 00:22:14 15° S 00:24:15 10° SE visible
27 Dec -2.0 01:56:21 10° SW 01:58:52 32° S 01:58:52 32° S visible
27 Dec -1.0 21:49:30 10° WSW 21:52:09 21° SSW 21:54:47 10° SSE visible
27 Dec -0.6 23:27:43 10° SSW 23:29:34 14° S 23:31:24 10° SE visible
